When you browse on this site, cookies collect data to enhance your experience and personalize the content and advertising you see.
Visit our Privacy Policy to learn more. By continuing to use the site, you agree to this use of cookies and data.
  • în România
  • Lista ţărilor
  • Pe 7 zile
  • Temperatura apei
  • Hartă satelitară
  • Meteo pe hartă
  • Widget-uri
  • user-avatar
    Intrare

    Meteo pe oră la Arrigorriaga

    Astăzi, 21 Iulie, Duminică

    Timp Temperatura Precipitaţii Vânt Presiune Umiditate
    00:00 +21°C° 0 mm 1 m/s 745 mmHg 96%
    01:00 +21°C° 0 mm 1 m/s 744 mmHg 96%
    02:00 +21°C° 0 mm 1 m/s 744 mmHg 95%
    03:00 +18°C° 0 mm 0 m/s 744 mmHg 95%
    04:00 +18°C° 0 mm 0 m/s 744 mmHg 95%
    05:00 +18°C° 0 mm 0 m/s 744 mmHg 95%
    06:00 +21°C° 0 mm 1 m/s 744 mmHg 95%
    07:00 +21°C° 0 mm 1 m/s 744 mmHg 93%
    08:00 +22°C° 0 mm 1 m/s 744 mmHg 91%
    09:00 +23°C° 0 mm 1 m/s 745 mmHg 88%
    10:00 +23°C° 0.1 mm 2 m/s 745 mmHg 84%
    11:00 +24°C° 0.1 mm 2 m/s 744 mmHg 79%
    12:00 +25°C° 0.1 mm 2 m/s 744 mmHg 75%
    13:00 +26°C° 0 mm 2 m/s 744 mmHg 72%
    14:00 +27°C° 0 mm 3 m/s 744 mmHg 69%
    15:00 +28°C° 0 mm 3 m/s 744 mmHg 66%
    16:00 +27°C° 0 mm 3 m/s 744 mmHg 70%
    17:00 +26°C° 0 mm 3 m/s 744 mmHg 74%
    18:00 +24°C° 0 mm 2 m/s 744 mmHg 78%
    19:00 +23°C° 0 mm 2 m/s 744 mmHg 83%
    20:00 +21°C° 0 mm 2 m/s 745 mmHg 89%
    21:00 +21°C° 0 mm 1 m/s 745 mmHg 94%
    22:00 +21°C° 0 mm 1 m/s 745 mmHg 94%
    23:00 +21°C° 0 mm 1 m/s 745 mmHg 94%

    Mâine, 22 Iulie, Luni

    Timp Temperatura Precipitaţii Vânt Presiune Umiditate
    00:00 +21°C° 0 mm 1 m/s 745 mmHg 94%
    01:00 +18°C° 0 mm 0 m/s 745 mmHg 94%
    02:00 +18°C° 0 mm 0 m/s 745 mmHg 94%
    03:00 +18°C° 0 mm 0 m/s 745 mmHg 94%
    04:00 +18°C° 0 mm 0 m/s 745 mmHg 94%
    05:00 +18°C° 0 mm 0 m/s 744 mmHg 93%
    06:00 +21°C° 0 mm 1 m/s 744 mmHg 92%
    07:00 +24°C° 0 mm 1 m/s 744 mmHg 80%
    08:00 +27°C° 0 mm 1 m/s 744 mmHg 68%
    09:00 +30°C° 0 mm 1 m/s 744 mmHg 56%
    10:00 +31°C° 0 mm 1 m/s 744 mmHg 51%
    11:00 +34°C° 0 mm 2 m/s 744 mmHg 45%
    12:00 +36°C° 0 mm 2 m/s 743 mmHg 39%
    13:00 +36°C° 0 mm 2 m/s 743 mmHg 38%
    14:00 +36°C° 0 mm 2 m/s 743 mmHg 38%
    15:00 +36°C° 0 mm 2 m/s 742 mmHg 38%
    16:00 +35°C° 0 mm 2 m/s 742 mmHg 45%
    17:00 +32°C° 0 mm 2 m/s 742 mmHg 51%
    18:00 +31°C° 0 mm 2 m/s 742 mmHg 58%
    19:00 +28°C° 0 mm 1 m/s 742 mmHg 66%
    20:00 +26°C° 0 mm 1 m/s 742 mmHg 74%
    21:00 +24°C° 0 mm 1 m/s 742 mmHg 82%
    22:00 +24°C° 0 mm 1 m/s 742 mmHg 78%
    23:00 +24°C° 0 mm 1 m/s 741 mmHg 73%

    Poimâine, 23 Iulie, Marţi

    Timp Temperatura Precipitaţii Vânt Presiune Umiditate
    00:00 +25°C° 0 mm 1 m/s 741 mmHg 69%
    01:00 +25°C° 0 mm 1 m/s 741 mmHg 64%
    02:00 +24°C° 0 mm 2 m/s 741 mmHg 59%
    03:00 +24°C° 0 mm 2 m/s 740 mmHg 55%
    04:00 +24°C° 0 mm 2 m/s 740 mmHg 54%
    05:00 +24°C° 0 mm 2 m/s 740 mmHg 53%
    06:00 +24°C° 0 mm 3 m/s 740 mmHg 52%
    07:00 +27°C° 0 mm 3 m/s 740 mmHg 44%
    08:00 +30°C° 0 mm 3 m/s 740 mmHg 37%
    09:00 +34°C° 0 mm 3 m/s 740 mmHg 29%
    10:00 +36°C° 0 mm 3 m/s 740 mmHg 26%
    11:00 +38°C° 0 mm 3 m/s 740 mmHg 24%
    12:00 +40°C° 0 mm 3 m/s 740 mmHg 21%
    13:00 +40°C° 0 mm 3 m/s 739 mmHg 24%
    14:00 +39°C° 0 mm 3 m/s 739 mmHg 26%
    15:00 +38°C° 0 mm 3 m/s 738 mmHg 29%
    16:00 +35°C° 0.4 mm 3 m/s 738 mmHg 44%
    17:00 +30°C° 0.4 mm 3 m/s 738 mmHg 60%
    18:00 +26°C° 0.4 mm 3 m/s 739 mmHg 75%
    19:00 +25°C° 0.2 mm 3 m/s 739 mmHg 77%
    20:00 +24°C° 0.2 mm 2 m/s 740 mmHg 78%
    21:00 +24°C° 0.2 mm 2 m/s 740 mmHg 80%
    22:00 +23°C° 0 mm 2 m/s 740 mmHg 85%
    23:00 +22°C° 0 mm 1 m/s 740 mmHg 90%

    24 Iulie, Miercuri

    Timp Temperatura Precipitaţii Vânt Presiune Umiditate
    00:00 +21°C° 0 mm 1 m/s 740 mmHg 94%
    01:00 +21°C° 0 mm 1 m/s 740 mmHg 95%
    02:00 +21°C° 0 mm 1 m/s 740 mmHg 95%
    03:00 +19°C° 0 mm 0 m/s 739 mmHg 95%
    04:00 +21°C° 0 mm 1 m/s 739 mmHg 93%
    05:00 +21°C° 0 mm 1 m/s 739 mmHg 92%
    06:00 +21°C° 0 mm 1 m/s 739 mmHg 90%
    07:00 +25°C° 0 mm 1 m/s 739 mmHg 75%
    08:00 +28°C° 0 mm 1 m/s 739 mmHg 60%
    09:00 +32°C° 0 mm 1 m/s 739 mmHg 44%
    10:00 +35°C° 0 mm 2 m/s 739 mmHg 38%
    11:00 +37°C° 0 mm 2 m/s 738 mmHg 32%
    12:00 +39°C° 0 mm 2 m/s 738 mmHg 26%
    13:00 +39°C° 0 mm 3 m/s 737 mmHg 25%
    14:00 +40°C° 0 mm 3 m/s 737 mmHg 24%
    15:00 +40°C° 0 mm 3 m/s 736 mmHg 23%
    16:00 +39°C° 0 mm 2 m/s 736 mmHg 28%
    17:00 +37°C° 0 mm 2 m/s 735 mmHg 32%
    18:00 +35°C° 0 mm 2 m/s 735 mmHg 36%
    19:00 +34°C° 0 mm 2 m/s 735 mmHg 38%
    20:00 +31°C° 0 mm 2 m/s 735 mmHg 39%
    21:00 +30°C° 0 mm 2 m/s 735 mmHg 40%
    22:00 +28°C° 0 mm 2 m/s 735 mmHg 46%
    23:00 +27°C° 0 mm 2 m/s 735 mmHg 52%

    25 Iulie, Joi

    Timp Temperatura Precipitaţii Vânt Presiune Umiditate
    00:00 +26°C° 0 mm 2 m/s 735 mmHg 57%
    01:00 +25°C° 0 mm 2 m/s 735 mmHg 57%
    02:00 +25°C° 0 mm 2 m/s 735 mmHg 56%
    03:00 +24°C° 0 mm 2 m/s 735 mmHg 55%
    04:00 +24°C° 0 mm 2 m/s 736 mmHg 56%
    05:00 +24°C° 0 mm 2 m/s 736 mmHg 57%
    06:00 +24°C° 0 mm 2 m/s 736 mmHg 58%
    07:00 +26°C° 0 mm 2 m/s 737 mmHg 53%
    08:00 +29°C° 0 mm 1 m/s 737 mmHg 47%
    09:00 +31°C° 0 mm 1 m/s 737 mmHg 41%
    10:00 +32°C° 0 mm 2 m/s 737 mmHg 41%
    11:00 +32°C° 0 mm 2 m/s 737 mmHg 40%
    12:00 +34°C° 0 mm 3 m/s 737 mmHg 40%
    13:00 +31°C° 0 mm 3 m/s 737 mmHg 47%
    14:00 +29°C° 0 mm 4 m/s 737 mmHg 54%
    15:00 +27°C° 0 mm 4 m/s 737 mmHg 61%
    16:00 +25°C° 0.1 mm 4 m/s 737 mmHg 70%
    17:00 +24°C° 0.1 mm 3 m/s 738 mmHg 79%
    18:00 +21°C° 0.1 mm 3 m/s 738 mmHg 87%
    19:00 +20°C° 0.2 mm 3 m/s 739 mmHg 89%
    20:00 +20°C° 0.2 mm 3 m/s 740 mmHg 91%
    21:00 +19°C° 0.2 mm 3 m/s 740 mmHg 94%
    22:00 +19°C° 0.3 mm 2 m/s 741 mmHg 94%
    23:00 +18°C° 0.3 mm 2 m/s 741 mmHg 94%

    26 Iulie, Vineri

    Timp Temperatura Precipitaţii Vânt Presiune Umiditate
    00:00 +18°C° 0.3 mm 2 m/s 741 mmHg 94%
    01:00 +18°C° 0.7 mm 2 m/s 741 mmHg 94%
    02:00 +19°C° 0.7 mm 1 m/s 741 mmHg 93%
    03:00 +19°C° 0.7 mm 1 m/s 741 mmHg 93%
    04:00 +19°C° 0.2 mm 1 m/s 742 mmHg 93%
    05:00 +19°C° 0.2 mm 1 m/s 742 mmHg 93%
    06:00 +18°C° 0.2 mm 2 m/s 742 mmHg 93%
    07:00 +18°C° 0.2 mm 2 m/s 742 mmHg 91%
    08:00 +18°C° 0.2 mm 2 m/s 743 mmHg 89%
    09:00 +19°C° 0.2 mm 2 m/s 743 mmHg 87%
    10:00 +20°C° 0.2 mm 2 m/s 743 mmHg 83%
    11:00 +20°C° 0.2 mm 2 m/s 743 mmHg 78%
    12:00 +21°C° 0.2 mm 2 m/s 743 mmHg 74%
    13:00 +21°C° 0.1 mm 3 m/s 743 mmHg 73%
    14:00 +21°C° 0.1 mm 3 m/s 743 mmHg 71%
    15:00 +21°C° 0.1 mm 3 m/s 743 mmHg 70%
    16:00 +20°C° 0 mm 3 m/s 743 mmHg 70%
    17:00 +20°C° 0 mm 2 m/s 743 mmHg 69%
    18:00 +20°C° 0 mm 2 m/s 744 mmHg 69%
    19:00 +20°C° 0 mm 1 m/s 744 mmHg 75%
    20:00 +18°C° 0 mm 1 m/s 744 mmHg 80%
    21:00 +15°C° 0 mm 0 m/s 744 mmHg 86%
    22:00 +14°C° 0 mm 0 m/s 744 mmHg 88%
    23:00 +14°C° 0 mm 0 m/s 744 mmHg 89%
    Arată mai mult